Powrót do katalogu

CZ-4B DEB

AktywnySSO
NORAD 46484·DEBRIS·🇨🇳 China

Wystrzelony Sep 27, 2020 z Taiyuan Satellite Launch Center

Loading…

Następne Przeloty (najbliższe 24 godziny)

TLE

ŚwieżeSource: Space-Track

Epoka: Sep 14, 2026, 08:42 UTC

1 46484U 20067G   26257.36291988  .00004201  00000-0  34573-3 0  9991
2 46484  97.6130 309.2659 0036887  93.9964 266.5477 14.99105802323318

Śledź CZ-4B DEB w czasie rzeczywistym z AllMySat

Download on the App Store